Back to catalog

STARLINK-37710

AliveCommunicationsVLEO
NORAD 69826·PAYLOAD·🇺🇸 United States

Launched Jul 5, 2026 from Cape Canaveral Space Force Station

Loading…

Next Passes (next 24 hours)

TLE

FreshSource: CelesTrak SupGP

Epoch: Sep 14, 2026, 14:32 UTC

1 69826C 26154H   26257.60604167 -.00117740  00000+0 -34797-2 0  2571
2 69826  53.1601 359.5118 0001245  82.1370 148.0539 15.34441594    15

Track STARLINK-37710 in real time with AllMySat

Download on the App Store